Location: Oshawa
(43.9000°N, 78.8670°W)
Time: 03:10:02
(UTC-05:00)

Thor Agena Rocket - Visible Passes

Search period start: 24 February 2017 00:00
Search period end: 06 March 2017 00:00
Orbit: 759 x 809 km, 99.1° (Epoch: 24 February)

Date Brightness Start Highest point End Pass type
(mag) Time Alt. Az. Time Alt. Az. Time Alt. Az.
24 Feb 6.3 03:23:15 10° E 03:25:58 14° ENE 03:28:39 10° NNE visible
24 Feb 3.4 04:59:20 10° SSE 05:04:33 86° WSW 05:09:45 10° NNW visible
24 Feb 5.0 18:49:20 10° N 18:54:01 39° WNW 18:58:40 10° SW visible
25 Feb 4.3 04:28:23 10° SE 04:33:24 50° ENE 04:38:23 10° N visible
25 Feb 4.7 06:09:00 10° SW 06:12:57 22° W 06:16:53 10° NW visible
25 Feb 3.8 18:17:51 10° N 18:22:55 75° WNW 18:27:56 10° SSW visible
25 Feb 6.6 20:00:05 10° NW 20:01:19 11° NW 20:02:34 10° WNW visible
26 Feb 5.5 03:58:02 10° ESE 04:02:23 28° ENE 04:06:42 10° N visible
26 Feb 3.9 05:36:36 10° S 05:41:30 41° W 05:46:21 10° NNW visible
26 Feb 6.2 19:26:57 10° NNW 19:30:32 20° WNW 19:34:06 10° WSW visible
27 Feb 6.3 03:28:31 10° E 03:31:30 16° ENE 03:34:29 10° NNE visible
27 Feb 3.4 05:04:58 10° SSE 05:10:11 79° WSW 05:15:21 10° NNW visible
27 Feb 5.2 18:55:01 10° N 18:59:35 35° WNW 19:04:09 10° SW visible
28 Feb 4.2 04:33:56 10° SSE 04:38:59 56° ENE 04:44:01 10° N visible
28 Feb 4.8 06:14:55 10° SW 06:18:36 19° W 06:22:18 10° NW visible
28 Feb 4.0 18:23:29 10° N 18:28:30 68° WNW 18:33:30 10° SSW visible
01 Mar 5.3 04:03:30 10° SE 04:07:57 30° ENE 04:12:23 10° N visible
01 Mar 4.0 05:42:21 10° SSW 05:47:08 37° W 05:51:53 10° NNW visible
01 Mar 6.3 19:32:43 10° NNW 19:36:04 18° WNW 19:39:25 10° WSW visible
02 Mar 6.2 03:33:49 10° E 03:37:03 17° ENE 03:40:16 10° NNE visible
02 Mar 3.4 05:10:37 10° S 05:15:47 71° WSW 05:20:56 10° NNW visible
02 Mar 5.4 19:00:41 10° N 19:05:09 32° WNW 19:09:36 10° SW visible
03 Mar 4.0 04:39:30 10° SSE 04:44:36 61° ENE 04:49:38 10° N visible
03 Mar 4.2 18:29:06 10° N 18:34:05 61° WNW 18:39:02 10° SSW visible
04 Mar 5.2 04:08:58 10° SE 04:13:31 33° ENE 04:18:03 10° N visible
04 Mar 4.1 05:48:08 10° SSW 05:52:46 33° W 05:57:23 10° NNW visible
04 Mar 6.3 19:38:30 10° NNW 19:41:36 17° WNW 19:44:43 10° W visible
05 Mar 6.1 03:39:08 10° ESE 03:42:36 19° ENE 03:46:02 10° NNE visible
05 Mar 3.5 05:16:17 10° S 05:21:24 64° WSW 05:26:30 10° NNW visible
05 Mar 5.6 19:06:22 10° N 19:10:42 30° WNW 19:15:02 10° SW visible
